User: anonymous   Login
Location: Lanoux
(43.1180°N, 1.4255°E)
Time: 04:26:13
(UTC+00:00)
Language:

NOAA 15 - Orbit

View from above orbital plane
View from above orbital plane
View from above satellite
View from above satellite

Ground track
Ground track

The orbit is defined by the following mean orbital elements,

1 25338U          26110.97573951 +.00000000 +00000-0 +47423-4 0 00004
2 25338  98.5112 133.1440 0010874 149.5592 210.6223 14.27128327    03
Epoch (UTC): 20 April 2026 23:25:03
Eccentricity: 0.0010874
inclination: 98.5112°
perigee height: 794 km
apogee height: 809 km
right ascension of ascending node: 133.1440°
argument of perigee: 149.5592°
revolutions per day: 14.27128327
mean anomaly at epoch: 210.6223°

The dashed part of the orbit path shows where the satellite is in the earth's shadow,  

DLR